Custer, SD

12:46 PM MST on February 24, 2017 (GMT -0700)
Custer County

Weather History for KCUT - June, 2013

Change the Weather History Date:

Sunday, June 30, 2013

  Actual Average Record
Temperature  
Mean Temperature 60 °F 64 °F  
Max Temperature 73 °F 77 °F 95 °F (1961)
Min Temperature 47 °F 51 °F 32 °F (1954)
Degree Days  
Heating Degree Days 5 3  
Month to date heating degree days 193 220  
Since 1 June heating degree days 193 220  
Since 1 July heating degree days 8273 8389  
Cooling Degree Days 0 2  
Month to date cooling degree days 9 25  
Year to date cooling degree days 11 26  
Since 1 June cooling degree days 9 25  
Growing Degree Days 10 (Base 50)    
Moisture  
Dew Point 46 °F    
Average Humidity 59    
Maximum Humidity 80    
Minimum Humidity 38    
Precipitation  
Precipitation 0.00 in 0.09 in 1.80 in (1986)
Month to date precipitation 1.65 3.22  
Year to date precipitation 8.18 10.33  
Sea Level Pressure  
Sea Level Pressure 30.14 in    
Wind  
Wind Speed 4 mph (East)    
Max Wind Speed 14 mph    
Max Gust Speed 17 mph    
Visibility 10 miles    
Events      
T = Trace of Precipitation, MM = Missing Value Source: NWS Daily Summary

Daily Weather History Graph

Daily Weather History Graph

Search for Another Location

Airport or City:

Trip Planner

Search our weather history database for the weather conditions in past years. The results will help you decide how hot, cold, wet, or windy it might be!

Date:

Astronomy

Jun. 30, 2013 Rise Set
Actual Time 5:16 AM MDT 8:40 PM MDT
Civil Twilight 4:40 AM MDT 9:15 PM MDT
Nautical Twilight 3:53 AM MDT 10:02 PM MDT
Astronomical Twilight 2:54 AM MDT 11:01 PM MDT
Moon 12:25 AM MDT (6/30) 1:49 PM MDT (6/30)
Length of Visible Light 16h 35m
Length of Day
15h 24m
Last Quarter, 45% of the Moon is Illuminated
Jun 30
Last Quarter
Jul 8
New
Jul 15
First Quarter
Jul 22
Full
Jul 29
Last Quarter

Hourly Weather History & Observations

Time (MDT) Temp. Dew Point Humidity Pressure Visibility Wind Dir Wind Speed Gust Speed Precip Events Conditions
12:53 AM 50.0 °F 39.9 °F 68% 30.14 in 10.0 mi Calm Calm - N/A   Clear
1:53 AM 48.0 °F 39.9 °F 74% 30.15 in 10.0 mi North 3.5 mph - N/A   Clear
2:53 AM 48.9 °F 41.0 °F 74% 30.14 in 10.0 mi North 4.6 mph - N/A   Clear
3:53 AM 48.9 °F 41.0 °F 74% 30.13 in 10.0 mi Calm Calm - N/A   Clear
4:53 AM 48.9 °F 42.1 °F 77% 30.13 in 10.0 mi Calm Calm - N/A   Clear
5:53 AM 48.0 °F 42.1 °F 80% 30.15 in 10.0 mi NW 3.5 mph - N/A   Clear
6:53 AM 51.1 °F 44.1 °F 77% 30.14 in 10.0 mi Calm Calm - N/A   Clear
7:53 AM 57.0 °F 48.0 °F 72% 30.15 in 10.0 mi Calm Calm - N/A   Clear
8:53 AM 62.1 °F 46.9 °F 58% 30.14 in 10.0 mi Calm Calm - N/A   Clear
9:53 AM 66.9 °F 46.0 °F 47% 30.12 in 10.0 mi NE 3.5 mph - N/A   Clear
10:53 AM 69.1 °F 44.1 °F 40% 30.12 in 10.0 mi NW 3.5 mph - N/A   Scattered Clouds
11:53 AM 73.0 °F 46.0 °F 38% 30.11 in 10.0 mi Variable 4.6 mph - N/A   Partly Cloudy
12:53 PM 70.0 °F 48.0 °F 46% 30.13 in 10.0 mi South 8.1 mph - N/A   Mostly Cloudy
1:53 PM 70.0 °F 48.0 °F 46% 30.14 in 10.0 mi SE 6.9 mph - N/A   Overcast
2:53 PM 69.1 °F 48.9 °F 49% 30.14 in 10.0 mi ESE 8.1 mph - N/A   Overcast
3:53 PM 70.0 °F 48.9 °F 47% 30.14 in 10.0 mi ESE 11.5 mph - N/A   Mostly Cloudy
4:53 PM 70.0 °F 50.0 °F 49% 30.13 in 10.0 mi East 8.1 mph - N/A   Mostly Cloudy
5:53 PM 68.0 °F 48.9 °F 50% 30.14 in 10.0 mi East 9.2 mph - N/A   Mostly Cloudy
6:53 PM 66.9 °F 48.0 °F 51% 30.14 in 10.0 mi ESE 9.2 mph - N/A   Scattered Clouds
7:53 PM 66.0 °F 46.9 °F 50% 30.12 in 10.0 mi East 8.1 mph - N/A   Clear
8:53 PM 63.0 °F 46.9 °F 56% 30.13 in 10.0 mi East 5.8 mph - N/A   Clear
9:53 PM 60.1 °F 46.9 °F 62% 30.14 in 10.0 mi Calm Calm - N/A   Partly Cloudy
10:53 PM 55.9 °F 46.9 °F 72% 30.15 in 10.0 mi ENE 3.5 mph - N/A   Clear
11:53 PM 57.9 °F 46.0 °F 65% 30.15 in 10.0 mi East 4.6 mph - N/A   Clear